DW9051 Weather Reports


Display with metric or nautical units.
time (UTC)temp
F
wind
direction
speed
MPH
gust
MPH
rain 1hr
in
rain 24hr
in
rain mn
in
humidity
%
barometer
mb
20260503203539 71 322 6.0 9.0 0.00 0.00 0.00 59 1013.4
20260503202519 71 340 5.0 11.0 0.00 0.00 0.00 59 1013.4
20260503201519 71 327 4.0 8.0 0.00 0.00 0.00 59 1013.7
20260503200659 70 312 4.0 11.0 0.00 0.00 0.00 60 1013.8
20260503195519 69 335 4.0 9.0 0.00 0.00 0.00 62 1013.9
20260503194539 69 325 5.0 9.0 0.00 0.00 0.00 63 1014.0
20260503193519 70 330 4.0 11.0 0.00 0.00 0.00 62 1014.3
20260503192517 69 340 3.0 9.0 0.00 0.00 0.00 62 1014.4
20260503191520 68 353 4.0 10.0 0.00 0.00 0.00 63 1014.3
20260503190520 67 341 4.0 11.0 0.00 0.00 0.00 64 1014.3
20260503185520 68 356 4.0 11.0 0.00 0.00 0.00 63 1014.4
20260503184520 67 340 4.0 12.0 0.00 0.00 0.00 64 1014.6
20260503183517 67 344 5.0 9.0 0.00 0.00 0.00 65 1014.5
20260503182517 67 341 5.0 9.0 0.00 0.00 0.00 66 1014.4
20260503181520 67 339 5.0 10.0 0.00 0.00 0.00 66 1014.3
20260503180520 67 341 6.0 12.0 0.00 0.00 0.00 66 1014.7
20260503175538 67 343 4.0 11.0 0.00 0.00 0.00 65 1014.8
20260503174518 67 4 3.0 9.0 0.00 0.00 0.00 65 1015.0
20260503173518 66 340 5.0 11.0 0.00 0.00 0.00 66 1015.0
20260503172518 66 341 4.0 10.0 0.00 0.00 0.00 66 1015.0
20260503171541 66 352 5.0 9.0 0.00 0.00 0.00 66 1015.1
20260503170518 66 21 3.0 8.0 0.00 0.00 0.00 67 1015.3
20260503150520 62 357 2.0 5.0 0.00 0.00 0.00 74 1015.1
20260503130538 54 50 1.0 4.0 0.00 0.00 0.00 83 1013.7
20260503110519 54 88 0.0 2.0 0.00 0.00 0.00 82 1013.7
20260503081519 56 309 2.0 3.0 0.00 0.00 0.00 80 1013.8
20260503080519 56 8 2.0 3.0 0.00 0.00 0.00 79 1013.8
20260503072540 56 345 1.0 4.0 0.00 0.00 0.00 78 1013.7
20260503071519 56 3 1.0 3.0 0.00 0.00 0.00 77 1013.7
20260503070539 57 347 1.0 3.0 0.00 0.00 0.00 76 1013.7
20260503054517 59 320 1.0 2.0 0.00 0.00 0.00 73 1013.6
20260503053540 59 301 1.0 2.0 0.00 0.00 0.00 73 1013.6
20260503052518 59 314 1.0 3.0 0.00 0.00 0.00 72 1013.6
20260503051518 60 326 1.0 2.0 0.00 0.00 0.00 72 1013.6
20260503050518 59 31 1.0 3.0 0.00 0.00 0.00 71 1013.5
20260503045518 59 324 1.0 3.0 0.00 0.00 0.00 71 1013.4
20260503044538 60 316 1.0 3.0 0.00 0.00 0.00 71 1013.3
20260503043539 60 22 2.0 4.0 0.00 0.00 0.00 71 1013.3
20260503042519 61 49 1.0 4.0 0.00 0.00 0.00 68 1013.2
20260503041518 61 64 1.0 3.0 0.00 0.00 0.00 68 1013.1
20260503040518 62 357 1.0 3.0 0.00 0.00 0.00 67 1013.0
20260503035519 63 343 1.0 3.0 0.00 0.00 0.00 65 1013.0
20260503034519 64 343 1.0 4.0 0.00 0.00 0.00 61 1013.0
20260503033519 66 24 2.0 4.0 0.00 0.00 0.00 59 1013.0
20260503032519 67 48 2.0 6.0 0.00 0.00 0.00 57 1012.9
20260503031519 67 30 2.0 5.0 0.00 0.00 0.00 56 1012.8
20260503030519 67 20 2.0 6.0 0.00 0.00 0.00 56 1012.8
20260503025519 67 359 3.0 8.0 0.00 0.00 0.00 56 1012.7
20260503024519 68 335 3.0 7.0 0.00 0.00 0.00 56 1012.7
20260503023519 68 345 4.0 8.0 0.00 0.00 0.00 56 1012.7
20260503022520 69 354 5.0 12.0 0.00 0.00 0.00 55 1012.8
20260503021517 69 356 6.0 12.0 0.00 0.00 0.00 55 1012.9
20260503020517 69 346 6.0 13.0 0.00 0.00 0.00 54 1012.9
20260503015540 70 344 4.0 11.0 0.00 0.00 0.00 55 1013.2
20260503014520 70 348 5.0 12.0 0.00 0.00 0.00 56 1013.4
20260503013517 70 352 4.0 8.0 0.00 0.00 0.00 56 1013.4
20260503012518 70 337 5.0 11.0 0.00 0.00 0.00 56 1013.6
20260503011538 71 334 4.0 8.0 0.00 0.00 0.00 56 1013.8
20260503010518 71 329 3.0 8.0 0.00 0.00 0.00 56 1013.8
20260503005521 70 350 4.0 9.0 0.00 0.00 0.00 56 1013.9
20260503004518 70 344 5.0 11.0 0.00 0.00 0.00 56 1013.9
20260503003538 70 347 5.0 11.0 0.00 0.00 0.00 56 1013.8
20260503002518 70 345 6.0 13.0 0.00 0.00 0.00 55 1013.8
20260503001558 70 341 6.0 13.0 0.00 0.00 0.00 55 1013.9
20260503000519 70 345 5.0 10.0 0.00 0.00 0.00 54 1014.2
20260502235539 70 346 8.0 16.0 0.00 0.00 0.00 54 1014.1
20260502234538 70 353 5.0 9.0 0.00 0.00 0.00 55 1014.3
20260502233519 70 348 5.0 10.0 0.00 0.00 0.00 57 1014.5
20260502232519 69 354 5.0 10.0 0.00 0.00 0.00 60 1014.7
20260502231519 69 354 5.0 12.0 0.00 0.00 0.00 61 1014.8
20260502230519 69 335 5.0 11.0 0.00 0.00 0.00 62 1015.1
20260502225519 68 352 4.0 9.0 0.00 0.00 0.00 64 1015.2
20260502224519 68 353 6.0 11.0 0.00 0.00 0.00 64 1015.3
20260502223519 68 352 6.0 12.0 0.00 0.00 0.00 65 1015.5
20260502222519 68 350 5.0 9.0 0.00 0.00 0.00 65 1015.7
20260502221536 67 348 6.0 13.0 0.00 0.00 0.00 66 1015.7
20260502220520 67 342 6.0 11.0 0.00 0.00 0.00 66 1015.8
20260502215520 67 340 5.0 12.0 0.00 0.00 0.00 66 1016.0
20260502214520 66 339 6.0 13.0 0.00 0.00 0.00 67 1016.0
20260502213537 67 334 5.0 11.0 0.00 0.00 0.00 66 1016.3
20260502212517 66 348 6.0 13.0 0.00 0.00 0.00 67 1016.3
20260502211517 67 339 6.0 11.0 0.00 0.00 0.00 67 1016.4
20260502210521 66 327 4.0 10.0 0.00 0.00 0.00 67 1016.5
20260502205520 67 343 5.0 10.0 0.00 0.00 0.00 67 1016.6
20260502204518 66 353 4.0 9.0 0.00 0.00 0.00 68 1016.7